Time,TemperatureF,DewpointF,PressureIn,WindDirection,WindDirectionDegrees,WindSpeedMPH,WindSpeedGustMPH,Humidity,HourlyPrecipIn,Conditions,Clouds,dailyrainin,SoftwareType,DateUTC
2013-09-14 00:10:00,51.3,51.0,29.78,SW,225,0.0,0.0,100,0.00,,,1.05,weatherlink.com 1.10,2013-09-14 04:10:00,
2013-09-14 00:25:00,51.3,51.0,29.78,SW,225,0.0,1.0,100,0.00,,,1.05,weatherlink.com 1.10,2013-09-14 04:25:00,
2013-09-14 00:41:00,51.3,51.0,29.78,WSW,245,0.0,1.0,100,0.00,,,1.05,weatherlink.com 1.10,2013-09-14 04:41:00,
2013-09-14 00:56:00,51.2,51.0,29.78,WSW,244,0.0,1.0,100,0.00,,,1.05,weatherlink.com 1.10,2013-09-14 04:56:00,
2013-09-14 01:11:00,51.2,51.0,29.79,West,275,0.0,1.0,100,0.00,,,1.05,weatherlink.com 1.10,2013-09-14 05:11:00,
2013-09-14 01:26:00,51.0,51.0,29.80,West,276,0.0,0.0,100,0.00,,,1.05,weatherlink.com 1.10,2013-09-14 05:26:00,
2013-09-14 01:41:00,50.9,51.0,29.80,West,276,0.0,1.0,100,0.00,,,1.05,weatherlink.com 1.10,2013-09-14 05:41:00,
2013-09-14 01:56:00,51.0,51.0,29.80,West,276,0.0,1.0,100,0.00,,,1.05,weatherlink.com 1.10,2013-09-14 05:56:00,
2013-09-14 02:11:00,50.8,51.0,29.80,WSW,248,0.0,1.0,100,0.00,,,0.00,weatherlink.com 1.10,2013-09-14 06:11:00,
2013-09-14 02:26:00,50.7,51.0,29.80,SW,219,0.0,1.0,100,0.00,,,0.00,weatherlink.com 1.10,2013-09-14 06:26:00,
2013-09-14 02:41:00,50.7,51.0,29.80,SW,218,0.0,1.0,100,0.00,,,0.00,weatherlink.com 1.10,2013-09-14 06:41:00,
2013-09-14 02:56:00,50.6,51.0,29.80,SW,218,0.0,1.0,100,0.01,,,0.01,weatherlink.com 1.10,2013-09-14 06:56:00,
2013-09-14 03:11:00,50.4,50.0,29.81,NE,36,0.0,1.0,100,0.01,,,0.01,weatherlink.com 1.10,2013-09-14 07:11:00,
2013-09-14 03:26:00,50.0,50.0,29.81,NNE,27,0.0,1.0,100,0.01,,,0.01,weatherlink.com 1.10,2013-09-14 07:26:00,
2013-09-14 03:41:00,49.9,50.0,29.81,SW,226,0.0,1.0,100,0.02,,,0.02,weatherlink.com 1.10,2013-09-14 07:41:00,
2013-09-14 03:56:00,49.7,50.0,29.82,West,269,0.0,1.0,100,0.01,,,0.02,weatherlink.com 1.10,2013-09-14 07:56:00,
2013-09-14 04:11:00,49.6,50.0,29.82,WSW,245,0.0,1.0,100,0.01,,,0.02,weatherlink.com 1.10,2013-09-14 08:11:00,
2013-09-14 04:26:00,49.6,50.0,29.82,WSW,252,0.0,1.0,100,0.01,,,0.02,weatherlink.com 1.10,2013-09-14 08:26:00,
2013-09-14 04:41:00,49.4,49.0,29.82,West,269,0.0,1.0,100,0.01,,,0.03,weatherlink.com 1.10,2013-09-14 08:41:00,
2013-09-14 04:56:00,49.3,49.0,29.83,West,277,0.0,2.0,100,0.01,,,0.03,weatherlink.com 1.10,2013-09-14 08:56:00,
2013-09-14 05:11:00,49.1,49.0,29.83,SW,219,0.0,1.0,100,0.02,,,0.04,weatherlink.com 1.10,2013-09-14 09:11:00,
2013-09-14 05:26:00,49.0,49.0,29.84,WSW,245,0.0,1.0,100,0.02,,,0.04,weatherlink.com 1.10,2013-09-14 09:26:00,
2013-09-14 05:41:00,48.9,49.0,29.84,WSW,245,0.0,1.0,100,0.01,,,0.04,weatherlink.com 1.10,2013-09-14 09:41:00,
2013-09-14 05:56:00,48.8,49.0,29.85,WSW,243,0.0,1.0,100,0.01,,,0.04,weatherlink.com 1.10,2013-09-14 09:56:00,
2013-09-14 06:11:00,48.7,49.0,29.85,West,259,0.0,3.0,100,0.00,,,0.04,weatherlink.com 1.10,2013-09-14 10:11:00,
2013-09-14 06:26:00,48.6,49.0,29.85,SW,226,0.0,1.0,100,0.02,,,0.06,weatherlink.com 1.10,2013-09-14 10:26:00,
2013-09-14 06:41:00,48.5,49.0,29.86,West,277,1.0,1.0,100,0.02,,,0.06,weatherlink.com 1.10,2013-09-14 10:41:00,
2013-09-14 06:56:00,48.5,49.0,29.86,West,277,1.0,1.0,100,0.03,,,0.07,weatherlink.com 1.10,2013-09-14 10:56:00,
2013-09-14 07:11:00,48.6,49.0,29.87,West,277,0.0,0.0,100,0.03,,,0.07,weatherlink.com 1.10,2013-09-14 11:11:00,
2013-09-14 07:26:00,48.5,49.0,29.88,SSE,159,0.0,1.0,100,0.01,,,0.07,weatherlink.com 1.10,2013-09-14 11:26:00,
2013-09-14 07:41:00,48.7,49.0,29.88,SSE,159,0.0,1.0,100,0.01,,,0.07,weatherlink.com 1.10,2013-09-14 11:41:00,
2013-09-14 07:56:00,48.9,49.0,29.89,SSW,213,0.0,1.0,100,0.00,,,0.07,weatherlink.com 1.10,2013-09-14 11:56:00,
2013-09-14 08:11:00,48.9,49.0,29.90,SW,219,1.0,1.0,100,0.01,,,0.08,weatherlink.com 1.10,2013-09-14 12:11:00,
2013-09-14 08:26:00,48.9,49.0,29.90,WSW,240,0.0,2.0,100,0.01,,,0.08,weatherlink.com 1.10,2013-09-14 12:26:00,
2013-09-14 08:41:00,49.0,49.0,29.90,WSW,237,0.0,1.0,100,0.01,,,0.08,weatherlink.com 1.10,2013-09-14 12:41:00,
2013-09-14 08:56:00,49.7,50.0,29.90,WSW,242,0.0,2.0,100,0.01,,,0.08,weatherlink.com 1.10,2013-09-14 12:56:00,
2013-09-14 09:11:00,50.1,50.0,29.91,WSW,243,0.0,1.0,100,0.00,,,0.08,weatherlink.com 1.10,2013-09-14 13:11:00,
2013-09-14 09:26:00,49.9,50.0,29.92,West,281,0.0,1.0,100,0.00,,,0.08,weatherlink.com 1.10,2013-09-14 13:26:00,
2013-09-14 09:42:00,49.9,50.0,29.92,West,268,0.0,1.0,100,0.00,,,0.08,weatherlink.com 1.10,2013-09-14 13:42:00,
2013-09-14 09:57:00,50.4,50.0,29.92,West,271,1.0,3.0,100,0.00,,,0.08,weatherlink.com 1.10,2013-09-14 13:57:00,
2013-09-14 10:12:00,51.2,51.0,29.92,East,81,0.0,1.0,100,0.00,,,0.08,weatherlink.com 1.10,2013-09-14 14:12:00,
2013-09-14 10:27:00,51.6,51.0,29.92,WNW,286,0.0,2.0,98,0.00,,,0.08,weatherlink.com 1.10,2013-09-14 14:27:00,
2013-09-14 10:42:00,51.6,51.0,29.92,WSW,257,1.0,1.0,98,0.00,,,0.08,weatherlink.com 1.10,2013-09-14 14:42:00,
2013-09-14 10:57:00,51.5,51.0,29.92,ENE,64,1.0,2.0,99,0.00,,,0.08,weatherlink.com 1.10,2013-09-14 14:57:00,
2013-09-14 11:12:00,51.6,51.0,29.92,WSW,251,0.0,1.0,98,0.00,,,0.08,weatherlink.com 1.10,2013-09-14 15:12:00,
2013-09-14 11:27:00,51.5,51.0,29.93,NE,40,0.0,3.0,98,0.00,,,0.08,weatherlink.com 1.10,2013-09-14 15:27:00,
2013-09-14 11:42:00,51.9,51.0,29.93,ESE,122,0.0,2.0,97,0.00,,,0.08,weatherlink.com 1.10,2013-09-14 15:42:00,
2013-09-14 11:57:00,52.6,52.0,29.93,SSW,206,2.0,4.0,96,0.00,,,0.08,weatherlink.com 1.10,2013-09-14 15:57:00,
2013-09-14 12:12:00,52.6,52.0,29.93,WSW,240,0.0,1.0,97,0.00,,,0.08,weatherlink.com 1.10,2013-09-14 16:12:00,
2013-09-14 12:27:00,52.2,51.0,29.93,SSW,192,0.0,2.0,95,0.00,,,0.08,weatherlink.com 1.10,2013-09-14 16:27:00,
2013-09-14 12:42:00,51.7,51.0,29.93,West,274,0.0,2.0,96,0.00,,,0.08,weatherlink.com 1.10,2013-09-14 16:42:00,
2013-09-14 12:57:00,51.5,51.0,29.94,SW,219,0.0,1.0,97,0.00,,,0.08,weatherlink.com 1.10,2013-09-14 16:57:00,
2013-09-14 13:12:00,51.2,51.0,29.94,WSW,248,0.0,1.0,98,0.00,,,0.08,weatherlink.com 1.10,2013-09-14 17:12:00,
2013-09-14 13:27:00,51.0,51.0,29.94,SW,232,0.0,1.0,98,0.00,,,0.08,weatherlink.com 1.10,2013-09-14 17:27:00,
2013-09-14 13:42:00,51.0,50.0,29.94,WSW,244,0.0,1.0,97,0.00,,,0.08,weatherlink.com 1.10,2013-09-14 17:42:00,
2013-09-14 13:57:00,51.2,51.0,29.94,SSE,148,0.0,1.0,98,0.00,,,0.08,weatherlink.com 1.10,2013-09-14 17:57:00,
2013-09-14 14:12:00,51.3,51.0,29.94,West,260,0.0,1.0,97,0.00,,,0.08,weatherlink.com 1.10,2013-09-14 18:12:00,
2013-09-14 14:27:00,51.5,51.0,29.94,NE,38,0.0,1.0,98,0.00,,,0.08,weatherlink.com 1.10,2013-09-14 18:27:00,
2013-09-14 14:42:00,51.9,51.0,29.94,SE,129,0.0,1.0,97,0.00,,,0.08,weatherlink.com 1.10,2013-09-14 18:42:00,
2013-09-14 14:57:00,52.1,51.0,29.94,ESE,118,0.0,2.0,96,0.00,,,0.08,weatherlink.com 1.10,2013-09-14 18:57:00,
2013-09-14 15:12:00,52.1,51.0,29.94,SSW,205,1.0,1.0,96,0.00,,,0.08,weatherlink.com 1.10,2013-09-14 19:12:00,
2013-09-14 15:27:00,52.4,51.0,29.95,SW,225,0.0,1.0,96,0.00,,,0.08,weatherlink.com 1.10,2013-09-14 19:27:00,
2013-09-14 15:42:00,52.4,51.0,29.95,SW,225,0.0,1.0,96,0.00,,,0.08,weatherlink.com 1.10,2013-09-14 19:42:00,
2013-09-14 15:57:00,52.2,51.0,29.95,SSW,209,0.0,1.0,96,0.00,,,0.08,weatherlink.com 1.10,2013-09-14 19:57:00,
2013-09-14 16:12:00,52.2,51.0,29.96,West,277,0.0,1.0,95,0.00,,,0.08,weatherlink.com 1.10,2013-09-14 20:12:00,
2013-09-14 16:27:00,52.4,51.0,29.96,WSW,240,0.0,1.0,96,0.00,,,0.08,weatherlink.com 1.10,2013-09-14 20:27:00,
2013-09-14 16:42:00,52.2,51.0,29.96,WSW,240,0.0,1.0,97,0.00,,,0.08,weatherlink.com 1.10,2013-09-14 20:42:00,
2013-09-14 16:57:00,52.2,51.0,29.97,WSW,240,0.0,1.0,95,0.00,,,0.08,weatherlink.com 1.10,2013-09-14 20:57:00,
2013-09-14 17:12:00,52.0,51.0,29.98,WSW,240,0.0,0.0,96,0.00,,,0.08,weatherlink.com 1.10,2013-09-14 21:12:00,
2013-09-14 17:27:00,51.8,51.0,29.99,WSW,240,0.0,0.0,97,0.00,,,0.08,weatherlink.com 1.10,2013-09-14 21:27:00,
2013-09-14 17:42:00,51.7,51.0,30.00,WSW,240,0.0,0.0,97,0.00,,,0.08,weatherlink.com 1.10,2013-09-14 21:42:00,
2013-09-14 17:57:00,51.5,51.0,30.00,WSW,240,0.0,0.0,97,0.00,,,0.08,weatherlink.com 1.10,2013-09-14 21:57:00,
2013-09-14 18:12:00,51.4,51.0,30.00,WSW,240,0.0,0.0,98,0.00,,,0.08,weatherlink.com 1.10,2013-09-14 22:12:00,
2013-09-14 18:27:00,51.1,51.0,30.00,WSW,240,0.0,0.0,98,0.00,,,0.08,weatherlink.com 1.10,2013-09-14 22:27:00,
2013-09-14 18:42:00,51.0,51.0,30.00,WSW,240,0.0,0.0,99,0.00,,,0.08,weatherlink.com 1.10,2013-09-14 22:42:00,
2013-09-14 18:57:00,50.9,51.0,30.01,WSW,240,0.0,0.0,99,0.00,,,0.08,weatherlink.com 1.10,2013-09-14 22:57:00,
2013-09-14 19:12:00,50.7,51.0,30.02,WSW,240,0.0,1.0,99,0.00,,,0.08,weatherlink.com 1.10,2013-09-14 23:12:00,
2013-09-14 19:27:00,50.7,51.0,30.02,WSW,240,0.0,1.0,100,0.00,,,0.08,weatherlink.com 1.10,2013-09-14 23:27:00,
2013-09-14 19:42:00,50.5,50.0,30.03,WSW,240,0.0,1.0,99,0.00,,,0.08,weatherlink.com 1.10,2013-09-14 23:42:00,
2013-09-14 19:57:00,50.2,50.0,30.04,SSW,203,0.0,1.0,99,0.00,,,0.08,weatherlink.com 1.10,2013-09-14 23:57:00,
2013-09-14 20:12:00,49.9,50.0,30.04,SSW,204,0.0,0.0,99,0.00,,,0.08,weatherlink.com 1.10,2013-09-15 00:12:00,
2013-09-14 20:27:00,49.8,50.0,30.04,SSW,204,0.0,0.0,99,0.00,,,0.08,weatherlink.com 1.10,2013-09-15 00:27:00,
2013-09-14 20:42:00,49.5,49.0,30.05,SSW,203,0.0,0.0,99,0.00,,,0.08,weatherlink.com 1.10,2013-09-15 00:42:00,
2013-09-14 20:58:00,49.4,49.0,30.05,SSW,203,0.0,0.0,99,0.00,,,0.08,weatherlink.com 1.10,2013-09-15 00:58:00,
2013-09-14 21:13:00,49.0,49.0,30.05,SSW,204,0.0,0.0,98,0.00,,,0.08,weatherlink.com 1.10,2013-09-15 01:13:00,
2013-09-14 21:28:00,48.7,49.0,30.05,SSW,204,0.0,1.0,99,0.00,,,0.08,weatherlink.com 1.10,2013-09-15 01:28:00,
2013-09-14 21:43:00,48.6,48.0,30.05,SSW,194,0.0,0.0,99,0.00,,,0.08,weatherlink.com 1.10,2013-09-15 01:43:00,
2013-09-14 21:58:00,48.6,49.0,30.06,SSW,194,0.0,0.0,100,0.00,,,0.08,weatherlink.com 1.10,2013-09-15 01:58:00,
2013-09-14 22:13:00,48.6,49.0,30.06,SSW,194,0.0,0.0,100,0.00,,,0.08,weatherlink.com 1.10,2013-09-15 02:13:00,
2013-09-14 22:28:00,48.5,48.0,30.06,SSW,194,0.0,1.0,99,0.00,,,0.08,weatherlink.com 1.10,2013-09-15 02:28:00,
2013-09-14 22:43:00,47.1,47.0,30.07,SE,129,1.0,1.0,98,0.00,,,0.08,weatherlink.com 1.10,2013-09-15 02:43:00,
2013-09-14 22:58:00,46.2,46.0,30.07,ENE,69,1.0,2.0,99,0.00,,,0.08,weatherlink.com 1.10,2013-09-15 02:58:00,
2013-09-14 23:13:00,45.8,46.0,30.07,ENE,69,0.0,1.0,100,0.00,,,0.08,weatherlink.com 1.10,2013-09-15 03:13:00,
2013-09-14 23:28:00,45.5,46.0,30.07,ENE,69,0.0,1.0,100,0.00,,,0.08,weatherlink.com 1.10,2013-09-15 03:28:00,
2013-09-14 23:43:00,45.1,45.0,30.07,ENE,69,1.0,1.0,100,0.00,,,0.08,weatherlink.com 1.10,2013-09-15 03:43:00,
2013-09-14 23:58:00,44.9,45.0,30.08,ENE,69,1.0,1.0,100,0.00,,,0.08,weatherlink.com 1.10,2013-09-15 03:58:00,